Location: *
(34.8620°S, 39.3380°E)
Time: 07:48:46
(UTC+00:00)

SAOCOM 1-B - Pass Details

Date: 02 June 2022
Orbit: 621 x 623 km, 97.9° (Epoch: 06 July)

Event Time Altitude Azimuth Distance (km) Brightness Sun altitude
Rises 02:32:47 0° 148° (SSE) 2,936 ? -21.9°
Reaches altitude 10° 02:35:39 10° 128° (SE) 2,019 ? -21.3°
Maximum altitude 02:38:37 18° 86° (E) 1,570 ? -20.7°
Drops below altitude 10° 02:41:32 10° 44° (NE) 2,000 ? -20.2°
Sets 02:44:21 0° 24° (NNE) 2,896 ? -19.6°
